Newport News, VA

6:06 PM EDT on October 01, 2016 (GMT -0400)
Felker Army Air Field

Weather History for KFAF - March, 2013

Change the Weather History Date:

Sunday, March 10, 2013

  Actual Average Record
Temperature  
Mean Temperature 45 °F -  
Max Temperature 59 °F 53 °F 77 °F (2016)
Min Temperature 31 °F 38 °F 26 °F (2005)
Degree Days  
Heating Degree Days 20    
Moisture  
Dew Point 32 °F    
Average Humidity 67    
Maximum Humidity 93    
Minimum Humidity 22    
Precipitation  
Precipitation 0.00 in - - ()
Sea Level Pressure  
Sea Level Pressure 30.30 in    
Wind  
Wind Speed 3 mph (ESE)    
Max Wind Speed 9 mph    
Max Gust Speed -    
Visibility 10 miles    
Events      
Averages and records for this station are not official NWS values.
T = Trace of Precipitation, MM = Missing Value Source: NWS Daily Summary

Daily Weather History Graph

Daily Weather History Graph

Search for Another Location

Airport or City:

Trip Planner

Search our weather history database for the weather conditions in past years. The results will help you decide how hot, cold, wet, or windy it might be!

Date:

Astronomy

Mar. 10, 2013 Rise Set
Actual Time 7:24 AM EDT 7:09 PM EDT
Civil Twilight 6:58 AM EDT 7:35 PM EDT
Nautical Twilight 6:28 AM EDT 8:05 PM EDT
Astronomical Twilight 5:58 AM EDT 8:35 PM EDT
Moon 6:22 AM EDT (3/10) 6:15 PM EDT (3/10)
Length of Visible Light 12h 36m
Length of Day
11h 44m
Waning Crescent, 2% of the Moon is Illuminated
Mar 10
Waning Crescent
Mar 11
New
Mar 19
First Quarter
Mar 27
Full
Apr 3
Last Quarter

Hourly Weather History & Observations

Time (EDT) Temp. Windchill Dew Point Humidity Pressure Visibility Wind Dir Wind Speed Gust Speed Precip Events Conditions
12:55 AM 36.1 °F - 31.5 °F 83% 30.32 in 10.0 mi Calm Calm - N/A   Clear
1:55 AM 35.2 °F - 31.6 °F 87% 30.31 in 10.0 mi Calm Calm - N/A   Clear
3:55 AM 33.8 °F - 31.1 °F 90% 30.30 in 10.0 mi Calm Calm - N/A   Clear
4:55 AM 33.4 °F - 30.4 °F 89% 30.29 in 10.0 mi Calm Calm - N/A   Clear
5:55 AM 33.1 °F - 30.2 °F 89% 30.30 in 10.0 mi Calm Calm - N/A   Clear
6:55 AM 31.8 °F - 28.8 °F 88% 30.31 in 10.0 mi Calm Calm - N/A   Clear
7:55 AM 32.7 °F - 29.7 °F 88% 30.31 in 10.0 mi Calm Calm - N/A   Clear
8:55 AM 40.1 °F - 34.7 °F 81% 30.32 in 10.0 mi Calm Calm - N/A   Clear
9:55 AM 49.5 °F - 27.5 °F 43% 30.33 in 10.0 mi East 3.5 mph - N/A   Clear
10:55 AM 53.6 °F - 15.4 °F 22% 30.34 in 10.0 mi ESE 9.2 mph - N/A   Clear
11:55 AM 55.9 °F - 18.3 °F 23% 30.33 in 10.0 mi Variable 3.5 mph - N/A   Clear
12:55 PM 55.4 °F - 25.9 °F 32% 30.33 in 10.0 mi South 6.9 mph - N/A   Clear
1:55 PM 56.1 °F - 25.3 °F 31% 30.31 in 10.0 mi SSE 6.9 mph - N/A   Clear
2:55 PM 56.8 °F - 23.9 °F 28% 30.29 in 10.0 mi South 8.1 mph - N/A   Clear
3:55 PM 59.2 °F - 33.1 °F 37% 30.28 in 10.0 mi Variable 4.6 mph - N/A   Clear
4:55 PM 57.9 °F - 35.6 °F 43% 30.28 in 10.0 mi ESE 6.9 mph - N/A   Clear
5:55 PM 55.2 °F - 37.2 °F 51% 30.28 in 10.0 mi East 8.1 mph - N/A   Clear
6:55 PM 50.4 °F - 41.9 °F 73% 30.29 in 10.0 mi East 5.8 mph - N/A   Clear
7:55 PM 47.5 °F - 41.4 °F 79% 30.28 in 10.0 mi ESE 5.8 mph - N/A   Clear
8:55 PM 45.5 °F 43.2 °F 41.0 °F 84% 30.29 in 10.0 mi ESE 4.6 mph - N/A   Clear
9:55 PM 44.1 °F 41.5 °F 40.8 °F 88% 30.31 in 10.0 mi ESE 4.6 mph - N/A   Clear
10:55 PM 43.3 °F 39.2 °F 40.6 °F 90% 30.28 in 10.0 mi ESE 6.9 mph - N/A   Clear
11:55 PM 42.6 °F 39.0 °F 40.5 °F 92% 30.28 in 10.0 mi SE 5.8 mph - N/A   Clear
12:55 AM 42.8 °F 40.1 °F 40.8 °F 93% 30.27 in 10.0 mi ESE 4.6 mph - N/A   Clear